Weather in Soldybayevo

Russia / Chuvash Republic     55°52′06″N   48°08′06″E
temp.,
°C
wind,
m/s
gust,
m/s
humid.,
%
clouds,
%
prec.,
mm/h
press.,
hPa
HPBL,
m
23 october, sat
sat2300:00+9wsw714760 0.0 1002638
03:00+7wsw7148148 0.0 1003636
06:00+6wsw6138425 0.0 1004487
09:00+8sw6126995 0.0 1006875
12:00+10wsw812538 0.0 10071383
15:00+10wsw711565 0.0 10081346
18:00+7sw4106518 0.0 1009226
21:00+5ssw38715 0.0 1009164
24 october, sun
sun2400:00+5sw3972100 0.0 1008215
03:00+5sw4107796 0.0 1008475
06:00+3wsw49905 0.0 1009256
09:00+4wsw6118215 0.0 1009588
12:00+7w796141 0.0 10101285
15:00+6w6864100 0.1 10111303
18:00+5wsw4870100 0.0 1012766
21:00+5sw3777100 0.1 1012419
25 october, mon
mon2500:00+4wsw4784100 0.2 1012458
03:00+3wsw2396100 0.9 1012673
06:00+3wnw3697100 1.3 1013606
09:00+1n8129096 1.8 1016665
12:00+2n7106584 0.1 10191102
15:00+3nnw610575 0.1 10221048
18:000nw410705 0.0 1025307
21:00−2wnw3680100 0.0 1025129
26 october, tue
tue2600:00−1wsw3877100 0.0 1025225
03:00−1sw5127197 0.0 1024431
06:000sw61464100 0.0 1022546
09:00+1wsw71464100 0.0 1021646
12:00+3wsw71164100 0.0 1020755
15:00+4wsw61171100 0.0 1019690
18:00+3wsw61271100 0.0 1020503
21:00+2wsw5127692 0.0 1020362
27 october, wed
wed2700:00+1wsw5118162 0.0 1020307
03:000wsw51184100 0.0 1019272
06:00+1sw51179100 0.0 1019306
09:00+2sw51270100 0.0 1019423
12:00+5wsw61257100 0.0 1017629
15:00+6sw71455100 0.0 1016689
18:00+5sw71554100 0.0 1014607
21:00+5sw81552100 0.0 1013671